Weather History for Holdrege, NE

Change the Weather History Date:

Friday, March 21, 2014

  Actual Average Record
Temperature  
Mean Temperature 43 °F -  
Max Temperature 55 °F 54 °F 78 °F (2007)
Min Temperature 31 °F 26 °F 8 °F (1955)
Degree Days  
Heating Degree Days 22    
Moisture  
Dew Point 23 °F    
Average Humidity 47    
Maximum Humidity 70    
Minimum Humidity 26    
Precipitation  
Precipitation 0.00 in - - ()
Sea Level Pressure  
Sea Level Pressure 29.98 in    
Wind  
Wind Speed 15 mph (North)    
Max Wind Speed 28 mph    
Max Gust Speed 37 mph    
Visibility 10 miles    
Events      
Averages and records for this station are not official NWS values.
T = Trace of Precipitation, MM = Missing Value Source: NWS Daily Summary

Daily Weather History Graph

Daily Weather History Graph

Search for Another Location

Airport:

Trip Planner

Search our weather history database for the weather conditions in past years. The results will help you decide how hot, cold, wet, or windy it might be!

Date:

Astronomy

Mar. 21, 2014 Rise Set
Actual Time 7:39 AM CDT 7:50 PM CDT
Civil Twilight 7:11 AM CDT 8:17 PM CDT
Nautical Twilight 6:39 AM CDT 8:49 PM CDT
Astronomical Twilight 6:07 AM CDT 9:22 PM CDT
Moon 12:11 AM CDT 10:31 AM CDT
Length of Visible Light 13h 05m
Length of Day
12h 11m
Waning Gibbous, 75% of the Moon is Illuminated
Mar 21
Waning Gibbous
Mar 23
Last Quarter
Mar 30
New
Apr 7
First Quarter
Apr 15
Full

Hourly Weather History & Observations

Time (CDT) Temp. Windchill Dew Point Humidity Pressure Visibility Wind Dir Wind Speed Gust Speed Precip Events Conditions
12:15 AM 44.1 °F 38.6 °F 14.9 °F 31% 29.76 in 10.0 mi South 10.4 mph - N/A   Clear
12:35 AM 40.6 °F 34.8 °F 15.8 °F 37% 29.76 in 10.0 mi South 9.2 mph - N/A   Clear
12:55 AM 40.1 °F 34.1 °F 15.6 °F 37% 29.76 in 10.0 mi South 9.2 mph - N/A   Clear
1:15 AM 39.6 °F 34.7 °F 15.8 °F 38% 29.76 in 10.0 mi South 6.9 mph - N/A   Clear
1:35 AM 41.4 °F 36.8 °F 15.3 °F 35% 29.76 in 10.0 mi South 6.9 mph - N/A   Clear
1:55 AM 42.1 °F 37.7 °F 15.6 °F 34% 29.76 in 10.0 mi South 6.9 mph - N/A   Clear
2:15 AM 44.1 °F 40.1 °F 16.2 °F 33% 29.76 in 10.0 mi SW 6.9 mph - N/A   Clear
2:35 AM 42.8 °F 37.5 °F 16.5 °F 35% 29.76 in 10.0 mi SSW 9.2 mph - N/A   Clear
2:55 AM 41.0 °F 36.4 °F 16.9 °F 38% 29.76 in 10.0 mi SW 6.9 mph - N/A   Clear
3:15 AM 40.5 °F 32.1 °F 17.4 °F 39% 29.80 in 10.0 mi NNW 16.1 mph 24.2 mph N/A   Clear
3:35 AM 44.1 °F 38.1 °F 17.4 °F 34% 29.81 in 10.0 mi NNW 11.5 mph - N/A   Clear
3:55 AM 42.6 °F 36.3 °F 19.0 °F 39% 29.81 in 10.0 mi North 11.5 mph - N/A   Clear
4:15 AM 41.0 °F 33.1 °F 19.8 °F 43% 29.82 in 10.0 mi North 15.0 mph 19.6 mph N/A   Clear
4:35 AM 39.2 °F 30.2 °F 25.2 °F 57% 29.82 in 10.0 mi North 17.3 mph - N/A   Clear
4:55 AM 38.5 °F 29.6 °F 26.4 °F 62% 29.83 in 10.0 mi North 16.1 mph - N/A   Clear
5:15 AM 38.8 °F 29.7 °F 26.6 °F 61% 29.83 in 10.0 mi North 17.3 mph - N/A   Clear
5:35 AM 38.3 °F 29.0 °F 26.6 °F 63% 29.84 in 10.0 mi North 17.3 mph - N/A   Clear
5:55 AM 38.3 °F 28.4 °F 26.6 °F 63% 29.84 in 10.0 mi North 19.6 mph 25.3 mph N/A   Clear
6:15 AM 38.1 °F 28.4 °F 26.6 °F 63% 29.84 in 10.0 mi North 18.4 mph 24.2 mph N/A   Clear
6:35 AM 37.4 °F 27.5 °F 26.6 °F 65% 29.84 in 10.0 mi North 18.4 mph 24.2 mph N/A   Clear
6:55 AM 36.9 °F 28.2 °F 26.6 °F 66% 29.85 in 10.0 mi North 13.8 mph - N/A   Clear
7:15 AM 36.0 °F 27.1 °F 26.6 °F 69% 29.86 in 10.0 mi North 13.8 mph 19.6 mph N/A   Clear
7:35 AM 35.4 °F 26.0 °F 26.6 °F 70% 29.86 in 10.0 mi North 15.0 mph 19.6 mph N/A   Clear
7:55 AM 35.2 °F 26.2 °F 26.4 °F 70% 29.88 in 10.0 mi NNW 13.8 mph 18.4 mph N/A   Clear
8:15 AM 36.0 °F 27.1 °F 26.1 °F 67% 29.90 in 10.0 mi NNW 13.8 mph 20.7 mph N/A   Clear
8:35 AM 37.4 °F 29.3 °F 25.5 °F 62% 29.91 in 10.0 mi NNW 12.7 mph 18.4 mph N/A   Clear
8:55 AM 39.4 °F 31.4 °F 25.2 °F 57% 29.92 in 10.0 mi NNW 13.8 mph 19.6 mph N/A   Clear
9:15 AM 41.7 °F 32.9 °F 24.6 °F 51% 29.93 in 10.0 mi North 19.6 mph 25.3 mph N/A   Clear
9:35 AM 43.0 °F 34.0 °F 24.8 °F 49% 29.94 in 10.0 mi North 21.9 mph 27.6 mph N/A   Clear
9:55 AM 43.3 °F 34.5 °F 25.0 °F 48% 29.95 in 10.0 mi North 21.9 mph 28.8 mph N/A   Clear
10:15 AM 44.6 °F 35.9 °F 24.8 °F 46% 29.96 in 10.0 mi North 23.0 mph 31.1 mph N/A   Clear
10:35 AM 46.0 °F 38.0 °F 24.4 °F 43% 29.97 in 10.0 mi North 21.9 mph 31.1 mph N/A   Clear
10:55 AM 46.2 °F 38.7 °F 23.7 °F 41% 29.98 in 10.0 mi North 19.6 mph 26.5 mph N/A   Clear
11:15 AM 47.7 °F - 22.8 °F 38% 29.99 in 10.0 mi NNW 21.9 mph - N/A   Clear
11:35 AM 48.4 °F - 22.8 °F 37% 29.99 in 10.0 mi NNW 17.3 mph 26.5 mph N/A   Clear
11:55 AM 48.7 °F - 22.3 °F 35% 30.00 in 10.0 mi NNW 18.4 mph 28.8 mph N/A   Clear
12:15 PM 50.0 °F - 22.8 °F 34% 30.00 in 10.0 mi North 18.4 mph 26.5 mph N/A   Clear
12:35 PM 50.7 °F - 22.8 °F 34% 30.01 in 10.0 mi NNW 19.6 mph 27.6 mph N/A   Clear
12:55 PM 52.2 °F - 23.7 °F 33% 30.01 in 10.0 mi NNW 17.3 mph 26.5 mph N/A   Clear
1:15 PM 52.2 °F - 22.8 °F 32% 30.01 in 10.0 mi NNW 19.6 mph 27.6 mph N/A   Clear
1:35 PM 52.7 °F - 22.6 °F 31% 30.01 in 10.0 mi NNW 21.9 mph 27.6 mph N/A   Clear
1:55 PM 54.0 °F - 21.9 °F 29% 30.01 in 10.0 mi NNW 23.0 mph 29.9 mph N/A   Clear
2:15 PM 54.0 °F - 21.4 °F 28% 30.01 in 10.0 mi NNW 25.3 mph 29.9 mph N/A   Clear
2:35 PM 54.9 °F - 21.6 °F 27% 30.01 in 10.0 mi NNW 20.7 mph 28.8 mph N/A   Clear
2:55 PM 54.5 °F - 20.5 °F 27% 30.01 in 10.0 mi NNW 24.2 mph 36.8 mph N/A   Clear
3:15 PM 54.5 °F - 20.3 °F 26% 30.01 in 10.0 mi NNW 27.6 mph 36.8 mph N/A   Clear
3:35 PM 54.0 °F - 21.2 °F 28% 30.01 in 10.0 mi North 24.2 mph 36.8 mph N/A   Clear
3:55 PM 54.5 °F - 20.7 °F 27% 30.02 in 10.0 mi NNW 23.0 mph 29.9 mph N/A   Clear
4:15 PM 53.8 °F - 19.9 °F 27% 30.02 in 10.0 mi North 23.0 mph 31.1 mph N/A   Clear
4:35 PM 53.6 °F - 21.6 °F 29% 30.02 in 10.0 mi NNW 21.9 mph 33.4 mph N/A   Clear
4:55 PM 52.9 °F - 22.6 °F 31% 30.04 in 10.0 mi North 21.9 mph 28.8 mph N/A   Clear
5:15 PM 51.6 °F - 22.1 °F 32% 30.05 in 10.0 mi North 23.0 mph 33.4 mph N/A   Clear
5:30 PM 50.5 °F - 22.1 °F 33% 30.06 in 10.0 mi North 25.3 mph 36.8 mph N/A   Clear
5:55 PM 49.6 °F - 23.9 °F 37% 30.07 in 10.0 mi North 27.6 mph 33.4 mph N/A   Clear
6:15 PM 47.3 °F - 25.0 °F 42% 30.09 in 10.0 mi North 21.9 mph 34.5 mph N/A   Clear
6:35 PM 45.5 °F 37.1 °F 25.5 °F 46% 30.10 in 10.0 mi North 23.0 mph 32.2 mph N/A   Clear
6:55 PM 43.2 °F 34.5 °F 26.4 °F 52% 30.12 in 10.0 mi North 20.7 mph 31.1 mph N/A   Clear
7:15 PM 41.5 °F 31.6 °F 25.7 °F 53% 30.13 in 10.0 mi North 24.2 mph 29.9 mph N/A   Clear
7:35 PM 40.1 °F 31.0 °F 25.2 °F 55% 30.14 in 10.0 mi North 18.4 mph - N/A   Clear
7:55 PM 38.7 °F 29.5 °F 25.2 °F 58% 30.15 in 10.0 mi North 17.3 mph 23.0 mph N/A   Clear
8:15 PM 37.8 °F 28.6 °F 24.8 °F 60% 30.15 in 10.0 mi North 16.1 mph 20.7 mph N/A   Clear
8:35 PM 37.0 °F 27.7 °F 25.0 °F 62% 30.16 in 10.0 mi North 16.1 mph 20.7 mph N/A   Clear
8:55 PM 36.7 °F 26.3 °F 25.3 °F 64% 30.18 in 10.0 mi North 19.6 mph 26.5 mph N/A   Mostly Cloudy
9:15 PM 36.9 °F 26.5 °F 25.5 °F 64% 30.20 in 10.0 mi North 19.6 mph - N/A   Mostly Cloudy
9:35 PM 36.7 °F 26.3 °F 25.2 °F 63% 30.20 in 10.0 mi North 19.6 mph 26.5 mph N/A   Overcast
9:55 PM 36.7 °F 27.6 °F 25.3 °F 64% 30.22 in 10.0 mi North 15.0 mph 23.0 mph N/A   Overcast
10:15 PM 36.3 °F 26.4 °F 25.5 °F 65% 30.23 in 10.0 mi North 17.3 mph 24.2 mph N/A   Overcast
10:35 PM 35.6 °F 25.9 °F 25.2 °F 66% 30.24 in 10.0 mi North 16.1 mph 23.0 mph N/A   Overcast
10:55 PM 34.9 °F 26.2 °F 24.1 °F 65% 30.24 in 10.0 mi North 12.7 mph - N/A   Overcast
11:15 PM 33.4 °F 24.3 °F 23.7 °F 68% 30.25 in 10.0 mi North 12.7 mph - N/A   Scattered Clouds
11:35 PM 32.0 °F 24.8 °F 23.0 °F 69% 30.27 in 10.0 mi North 8.1 mph - N/A   Clear
11:55 PM 31.6 °F 23.7 °F 23.0 °F 70% 30.27 in 10.0 mi North 9.2 mph - N/A   Clear